Flag for Germany Weather past 2 weeks in Schwerte, North Rhine-Westphalia, Germany

Now
40 °F

Overcast.


Feels Like: 37 °F
Forecast: 35 / 46 °F
Wind: 3 mph from Northwest

Location: Duesseldorf

Current Time: Mar 5, 2015 at 4:43:36 AM

Latest Report: Mar 5, 2015 at 3:00 AM


Visibility: 22 mi

Pressure: 30.57 "Hg

Humidity: 82%

Dew point: 35 °F

Location of SchwerteLocation

Historic Weather in Schwerte — Graph

°F

Schwerte temperature yesterday

Maximum temperature yesterday: 44 °F (at 5:00 PM)
Minimum temperature yesterday: 33 °F (at 5:00 AM)
Average temperature yesterday: 39 °F

Past Weeks' High & Low Weather Summary

 TemperatureHumidityPressure
High52 °F (Mar 1, 1:00 PM)100% (Feb 18, 7:00 AM)30.78 "Hg (Feb 18, 7:00 AM)
Low28 °F (Feb 28, 5:00 AM)47% (Mar 2, 2:00 PM)29.35 "Hg (Feb 21, 5:00 AM)
Average40 °F81%29.93 "Hg
* Reported Feb 18 3:00 AM — Mar 5 3:00 AM, Schwerte, Weather by CustomWeather, © 2015

Note: Actual official high and low records may vary slightly from our data, if they occured in-between our weather recording intervals... More about our weather records

Advertising

Schwerte weather history for previous 24 hours

 ConditionsComfort  
Time TempWeatherWind HumidityBarometerVisibility
3:00 AM
Thu, Mar 5
40 °FOvercast.3 mph82%30.57 "Hg22 mi
2:00 AM40 °FOvercast.5 mph83%30.55 "Hg19 mi
1:00 AM41 °FOvercast.5 mph83%30.52 "Hg19 mi
12:00 AM41 °FOvercast.5 mph85%30.50 "Hg22 mi
11:00 PM
Wed, Mar 4
41 °FOvercast.6 mph85%30.47 "Hg22 mi
9:00 PM40 °FOvercast.3 mph89%30.41 "Hg17 mi
8:00 PM39 °FOvercast.3 mph89%30.40 "Hg19 mi
7:00 PM38 °FLight rain. Overcast.5 mph90%30.38 "Hg16 mi
6:00 PM42 °FScattered clouds.7 mph72%30.34 "Hg25 mi
5:00 PM44 °FScattered clouds.8 mph66%30.31 "Hg25 mi
4:00 PM42 °FPartly sunny.6 mph80%30.29 "Hg25 mi
3:00 PM43 °FSleet. Partly sunny.6 mph71%30.28 "Hg19 mi
2:00 PM43 °FQuite cool.8 mph71%30.28 "HgN/A
1:00 PM43 °FOvercast.6 mph72%30.27 "Hg19 mi
12:00 PM43 °FPartly sunny.6 mph73%30.27 "Hg22 mi
11:00 AM41 °FPartly sunny.7 mph76%30.25 "Hg22 mi
9:00 AM36 °FPassing clouds.6 mph84%30.23 "Hg22 mi
8:00 AM35 °FPartly sunny.6 mph87%30.20 "Hg22 mi
7:00 AM34 °FPassing clouds.6 mph90%30.19 "Hg22 mi
6:00 AM33 °FClear.6 mph92%30.17 "Hg16 mi
5:00 AM33 °FClear.5 mph92%30.16 "Hg19 mi
Weather by CustomWeather, © 2015

See weather overviewHow to use our weather pages